Location: *
(43.9905°S, 176.4941°W)
Time: 07:08:29
(UTC+00:00)

SPOT 5 - Pass Details

Date: 08 December 2019
Orbit: 623 x 814 km, 98.3° (Epoch: 19 January)

Event Time Altitude Azimuth Distance (km) Brightness Sun altitude
Rises 09:57:00 0° 162° (SSE) 3,345 7.1 -19.4°
Reaches altitude 10° 09:59:29 10° 156° (SSE) 2,388 6.1 -19.6°
Maximum altitude 10:04:36 49° 81° (E) 992 3.3 -20.0°
Enters shadow 10:05:52 40° 40° (NE) 1,116 3.3 -20.1°
